Portada
METAR-TAF:

METAR-TAF

Aeroports :

Lifuka, Tonga

latitud: 19-46-36S, longitud: 174-20-28W, altitud: 9 m

Observació

L'informe es va fer fa 4 hores i 11 minuts, a les 06:00 UTC
Vent 12 kt del Oest/Nord-Oest
Temperatura 27°C
Humitat 89%
Pressió 1006 hPa
Visibilitat 10 km o més
Escasses núvols a una alçada de 1700 ft, Cumulus congestus.
Cel ennuvolat a una alçada de 29000 ft

METAR: NFTL 090600Z 29012KT 9999 FEW017TCU BKN290 27/25 Q1006

Hora: 23:11 (10:11 UTC)


TAF: manca

Observacions i pronòstics meteorològics de més de 4000 aeroports (METAR i TAF).

Les estacions disponibles són els punts grocs i vermells al mapa.

Posi el ratolí al punt desitjat per veure el nom de l'estació.

Feu clic per veure les observacions i els pronòstics meteorològics.

Per canviar el mapa: feu clic els botons verds amb una creu de color negre per apropar; al botó verd amb un guió per allunyar la imatge; o en les fletxes verdes per a mapes adjacents.


METAR-TAF: